Golden Princess — ZCDA9 — position and weather

sailwx.info

Track history (hours):
 
Tides and Currents Weather Stations Pressure Air Temp Water Temp Dewpoint Dewpoint Depression Visibility Wind Speed Wind Dir Waves Ship Positions

Golden Princess

Operator: Princess Cruises

Last reported at 2014-Aug-31 09:34 UTC. Time now 2014-Sep-01 13:53 UTC.
Position N 49°13' W 126°33'.

Length 289.6 m; beam 36 m; draft 8.5 m.

Type: Ship. MMSI: 310344000.

Date/timePositionNaut miles runAvg speedWind from/ knotsBaromVisibWave heightAir tempDewpointWater temp
2014-Aug-31 09:34N 49°13' W 126°33'2121.3
2014-Aug-31 08:34N 49°02' W 126°06'2121.0
2014-Aug-31 07:34N 48°49' W 125°40'2121.4
2014-Aug-31 06:33N 48°40' W 125°11'2322.6
2014-Aug-31 05:33N 48°30' W 124°40'2222.3
2014-Aug-31 04:33N 48°21' W 124°09'2121.2
2014-Aug-31 03:33N 48°16' W 123°38'1515.2
2014-Aug-31 02:33N 48°10' W 123°17'2018.6
2014-Aug-31 01:29N 48°11' W 122°47'1717.8
2014-Aug-31 00:33N 47°57' W 122°33'1818.0
2014-Aug-30 23:33N 47°40' W 122°27'4 3.6
2014-Aug-30 22:32N 47°38' W 122°23'0 0.0
2014-Aug-30 21:31N 47°38' W 122°23'0 0.0
2014-Aug-30 20:31N 47°38' W 122°23'0 0.0
2014-Aug-30 19:33N 47°38' W 122°23'0 0.0
2014-Aug-30 18:33N 47°38' W 122°23'0 0.0
2014-Aug-30 17:32N 47°38' W 122°23'0 0.0
2014-Aug-30 16:32N 47°38' W 122°23'0 0.0
2014-Aug-30 15:31N 47°38' W 122°23'0 0.0
2014-Aug-30 14:31N 47°38' W 122°23'0 0.0
2014-Aug-30 13:31N 47°38' W 122°23'3 3.6
2014-Aug-30 12:33N 47°39' W 122°28'1313.0
2014-Aug-30 11:33N 47°52' W 122°29'1313.5
2014-Aug-30 10:34N 48°03' W 122°39'1616.0
2014-Aug-30 09:33N 48°12' W 122°60'1616.0
2014-Aug-30 08:33N 48°10' W 123°24'1313.0
2014-Aug-30 07:33N 48°23' W 123°25'2 1.8
2014-Aug-30 06:31N 48°25' W 123°23'0 0.0
2014-Aug-30 05:31N 48°25' W 123°23'0 0.0
2014-Aug-30 04:33N 48°25' W 123°23'0 0.0
2014-Aug-30 03:33N 48°25' W 123°23'0 0.0
2014-Aug-30 02:32N 48°25' W 123°23'1 0.7
2014-Aug-30 01:33N 48°25' W 123°24'1413.8
2014-Aug-30 00:33N 48°14' W 123°37'2121.4
2014-Aug-29 23:33N 48°18' W 124°09'2121.3
2014-Aug-29 22:33N 48°27' W 124°38'2121.4
2014-Aug-29 21:33N 48°29' W 125°10'2020.4
2014-Aug-29 20:33N 48°43' W 125°34'2120.7
2014-Aug-29 19:33N 48°55' W 125°59'2020.1
2014-Aug-29 18:34N 49°08' W 126°22'62414.7
2014-Aug-28 00:14N 58°08' W 135°11'1319.3
2014-Aug-27 23:33N 58°14' W 135°33'1616.3
2014-Aug-27 22:33N 58°23' W 135°58'1212.1
2014-Aug-27 21:33N 58°35' W 136°04'1818.5
2014-Aug-27 20:33N 58°49' W 136°28'8 1.8
2014-Aug-27 16:08N 58°53' W 136°41'1118.2
2014-Aug-27 15:33N 58°47' W 136°24'1717.4
2014-Aug-27 14:33N 58°33' W 136°04'1110.8
2014-Aug-27 13:33N 58°23' W 135°58'9 9.4
2014-Aug-27 12:33N 58°18' W 135°42'1312.9
2014-Aug-27 11:33N 58°13' W 135°20'  
2014-Aug-24 10:09N 49°17' W 126°44'1220.9
2014-Aug-24 09:33N 49°11' W 126°28'2121.0
2014-Aug-24 08:33N 48°59' W 126°01'2120.6
2014-Aug-24 07:33N 48°48' W 125°35'2221.7
2014-Aug-24 06:33N 48°38' W 125°06'2221.9
2014-Aug-24 05:33N 48°29' W 124°36'2221.9
2014-Aug-24 04:33N 48°21' W 124°05'2222.0
2014-Aug-24 03:33N 48°15' W 123°33'1313.2
2014-Aug-24 02:33N 48°10' W 123°15'2019.4
2014-Aug-24 01:31N 48°10' W 122°44'1819.4
2014-Aug-24 00:33N 47°54' W 122°29'1716.9
2014-Aug-23 23:33N 47°38' W 122°25'1 1.2
2014-Aug-23 22:31N 47°38' W 122°23'0 0.0
2014-Aug-23 21:33N 47°38' W 122°23'0 0.0
2014-Aug-23 20:27N 47°38' W 122°23'0 0.0
2014-Aug-23 19:32N 47°38' W 122°23'62 3.9
2014-Aug-23 03:32N 48°25' W 123°23'0 0.0
2014-Aug-23 02:33N 48°25' W 123°23'10 9.6
2014-Aug-23 01:33N 48°16' W 123°27'2019.9
2014-Aug-23 00:33N 48°15' W 123°57'2121.2
2014-Aug-22 23:33N 48°23' W 124°26'2120.7
2014-Aug-22 22:33N 48°29' W 124°56'2020.6
2014-Aug-22 21:34N 48°38' W 125°24'2121.0
2014-Aug-22 20:34N 48°50' W 125°50'2120.9
2014-Aug-22 19:33N 49°04' W 126°13'2220.6
2014-Aug-22 18:31N 49°18' W 126°39'2420.8
2014-Aug-22 17:21N 49°33' W 127°08'31220.9
2014-Aug-22 02:27N 54°09' W 131°02'2521.2
2014-Aug-22 01:17N 54°32' W 131°14'  
Track history (hours):
 
Tides and Currents Weather Stations Pressure Air Temp Water Temp Dewpoint Dewpoint Depression Visibility Wind Speed Wind Dir Waves Ship Positions

Golden Princess

Operator: Princess Cruises

Last reported at 2014-Aug-31 09:34 UTC. Time now 2014-Sep-01 13:53 UTC.
Position N 49°13' W 126°33'.

Length 289.6 m; beam 36 m; draft 8.5 m.

Type: Ship. MMSI: 310344000.

Date/timePositionNaut miles runAvg speedWind from/ knotsBaromVisibWave heightAir tempDewpointWater temp
2014-Aug-31 09:34N 49°13' W 126°33'2121.3
2014-Aug-31 08:34N 49°02' W 126°06'2121.0
2014-Aug-31 07:34N 48°49' W 125°40'2121.4
2014-Aug-31 06:33N 48°40' W 125°11'2322.6
2014-Aug-31 05:33N 48°30' W 124°40'2222.3
2014-Aug-31 04:33N 48°21' W 124°09'2121.2
2014-Aug-31 03:33N 48°16' W 123°38'1515.2
2014-Aug-31 02:33N 48°10' W 123°17'2018.6
2014-Aug-31 01:29N 48°11' W 122°47'1717.8
2014-Aug-31 00:33N 47°57' W 122°33'1818.0
2014-Aug-30 23:33N 47°40' W 122°27'4 3.6
2014-Aug-30 22:32N 47°38' W 122°23'0 0.0
2014-Aug-30 21:31N 47°38' W 122°23'0 0.0
2014-Aug-30 20:31N 47°38' W 122°23'0 0.0
2014-Aug-30 19:33N 47°38' W 122°23'0 0.0
2014-Aug-30 18:33N 47°38' W 122°23'0 0.0
2014-Aug-30 17:32N 47°38' W 122°23'0 0.0
2014-Aug-30 16:32N 47°38' W 122°23'0 0.0
2014-Aug-30 15:31N 47°38' W 122°23'0 0.0
2014-Aug-30 14:31N 47°38' W 122°23'0 0.0
2014-Aug-30 13:31N 47°38' W 122°23'3 3.6
2014-Aug-30 12:33N 47°39' W 122°28'1313.0
2014-Aug-30 11:33N 47°52' W 122°29'1313.5
2014-Aug-30 10:34N 48°03' W 122°39'1616.0
2014-Aug-30 09:33N 48°12' W 122°60'1616.0
2014-Aug-30 08:33N 48°10' W 123°24'1313.0
2014-Aug-30 07:33N 48°23' W 123°25'2 1.8
2014-Aug-30 06:31N 48°25' W 123°23'0 0.0
2014-Aug-30 05:31N 48°25' W 123°23'0 0.0
2014-Aug-30 04:33N 48°25' W 123°23'0 0.0
2014-Aug-30 03:33N 48°25' W 123°23'0 0.0
2014-Aug-30 02:32N 48°25' W 123°23'1 0.7
2014-Aug-30 01:33N 48°25' W 123°24'1413.8
2014-Aug-30 00:33N 48°14' W 123°37'2121.4
2014-Aug-29 23:33N 48°18' W 124°09'2121.3
2014-Aug-29 22:33N 48°27' W 124°38'2121.4
2014-Aug-29 21:33N 48°29' W 125°10'2020.4
2014-Aug-29 20:33N 48°43' W 125°34'2120.7
2014-Aug-29 19:33N 48°55' W 125°59'2020.1
2014-Aug-29 18:34N 49°08' W 126°22'62414.7
2014-Aug-28 00:14N 58°08' W 135°11'1319.3
2014-Aug-27 23:33N 58°14' W 135°33'1616.3
2014-Aug-27 22:33N 58°23' W 135°58'1212.1
2014-Aug-27 21:33N 58°35' W 136°04'1818.5
2014-Aug-27 20:33N 58°49' W 136°28'8 1.8
2014-Aug-27 16:08N 58°53' W 136°41'1118.2
2014-Aug-27 15:33N 58°47' W 136°24'1717.4
2014-Aug-27 14:33N 58°33' W 136°04'1110.8
2014-Aug-27 13:33N 58°23' W 135°58'9 9.4
2014-Aug-27 12:33N 58°18' W 135°42'1312.9
2014-Aug-27 11:33N 58°13' W 135°20'  
2014-Aug-24 10:09N 49°17' W 126°44'1220.9
2014-Aug-24 09:33N 49°11' W 126°28'2121.0
2014-Aug-24 08:33N 48°59' W 126°01'2120.6
2014-Aug-24 07:33N 48°48' W 125°35'2221.7
2014-Aug-24 06:33N 48°38' W 125°06'2221.9
2014-Aug-24 05:33N 48°29' W 124°36'2221.9
2014-Aug-24 04:33N 48°21' W 124°05'2222.0
2014-Aug-24 03:33N 48°15' W 123°33'1313.2
2014-Aug-24 02:33N 48°10' W 123°15'2019.4
2014-Aug-24 01:31N 48°10' W 122°44'1819.4
2014-Aug-24 00:33N 47°54' W 122°29'1716.9
2014-Aug-23 23:33N 47°38' W 122°25'1 1.2
2014-Aug-23 22:31N 47°38' W 122°23'0 0.0
2014-Aug-23 21:33N 47°38' W 122°23'0 0.0
2014-Aug-23 20:27N 47°38' W 122°23'0 0.0
2014-Aug-23 19:32N 47°38' W 122°23'62 3.9
2014-Aug-23 03:32N 48°25' W 123°23'0 0.0
2014-Aug-23 02:33N 48°25' W 123°23'10 9.6
2014-Aug-23 01:33N 48°16' W 123°27'2019.9
2014-Aug-23 00:33N 48°15' W 123°57'2121.2
2014-Aug-22 23:33N 48°23' W 124°26'2120.7
2014-Aug-22 22:33N 48°29' W 124°56'2020.6
2014-Aug-22 21:34N 48°38' W 125°24'2121.0
2014-Aug-22 20:34N 48°50' W 125°50'2120.9
2014-Aug-22 19:33N 49°04' W 126°13'2220.6
2014-Aug-22 18:31N 49°18' W 126°39'2420.8
2014-Aug-22 17:21N 49°33' W 127°08'31220.9
2014-Aug-22 02:27N 54°09' W 131°02'2521.2
2014-Aug-22 01:17N 54°32' W 131°14'  

Dump ship's entire track history